TimePST,TemperatureF,Dew PointF,Humidity,Sea Level PressureIn,VisibilityMPH,Wind Direction,Wind SpeedMPH,Gust SpeedMPH,PrecipitationIn,Events,Conditions,WindDirDegrees,DateUTC
12:53 AM,26.1,21.9,84,30.17,-9999.0,SSE,6.9,-,N/A,,Clear,150,2013-02-26 08:53:00
1:53 AM,27.0,21.9,81,30.19,-9999.0,SSE,4.6,-,N/A,,Overcast,150,2013-02-26 09:53:00
2:53 AM,25.0,21.0,85,30.21,-9999.0,South,3.5,-,N/A,,Mostly Cloudy,180,2013-02-26 10:53:00
3:53 AM,25.0,21.9,88,30.22,-9999.0,SE,5.8,-,N/A,,Overcast,140,2013-02-26 11:53:00
4:53 AM,23.0,19.9,88,30.26,-9999.0,SSE,5.8,-,N/A,,Overcast,160,2013-02-26 12:53:00
5:53 AM,21.9,21.0,96,30.29,-9999.0,Calm,Calm,-,N/A,,Overcast,0,2013-02-26 13:53:00
6:53 AM,23.0,21.0,92,30.30,-9999.0,South,4.6,-,N/A,,Mostly Cloudy,170,2013-02-26 14:53:00
7:39 AM,21.2,19.4,93,30.25,10.0,South,4.6,-,N/A,,Mostly Cloudy,170,2013-02-26 15:39:00
7:53 AM,24.1,21.9,91,30.32,10.0,South,5.8,-,N/A,,Overcast,180,2013-02-26 15:53:00
8:53 AM,28.0,25.0,88,30.34,10.0,South,10.4,-,N/A,,Overcast,180,2013-02-26 16:53:00
9:53 AM,28.9,25.0,85,30.35,10.0,South,6.9,-,N/A,,Overcast,170,2013-02-26 17:53:00
10:53 AM,30.9,26.1,82,30.36,10.0,South,6.9,-,N/A,,Overcast,180,2013-02-26 18:53:00
11:53 AM,33.1,27.0,78,30.36,10.0,South,3.5,-,N/A,,Mostly Cloudy,190,2013-02-26 19:53:00
12:24 PM,35.6,26.6,70,30.28,10.0,Calm,Calm,-,N/A,,Scattered Clouds,0,2013-02-26 20:24:00
12:53 PM,36.0,26.1,67,30.34,10.0,North,-9999.0,-,N/A,,Clear,0,2013-02-26 20:53:00
1:53 PM,37.0,27.0,67,30.33,10.0,SW,5.8,-,N/A,,Overcast,220,2013-02-26 21:53:00
2:53 PM,37.0,27.0,67,30.33,10.0,Calm,Calm,-,N/A,,Overcast,0,2013-02-26 22:53:00
3:53 PM,39.0,25.0,57,30.33,10.0,Calm,Calm,-,N/A,,Overcast,0,2013-02-26 23:53:00
4:53 PM,35.1,26.1,70,30.33,10.0,Calm,Calm,-,N/A,,Mostly Cloudy,0,2013-02-27 00:53:00
5:53 PM,34.0,25.0,70,30.33,10.0,Calm,Calm,-,N/A,,Partly Cloudy,0,2013-02-27 01:53:00
6:53 PM,30.0,25.0,82,30.33,10.0,Calm,Calm,-,N/A,,Mostly Cloudy,0,2013-02-27 02:53:00
7:53 PM,30.0,26.1,85,30.32,10.0,Calm,Calm,-,N/A,,Mostly Cloudy,0,2013-02-27 03:53:00
8:53 PM,30.0,26.1,85,30.31,10.0,Calm,Calm,-,N/A,,Clear,0,2013-02-27 04:53:00
9:53 PM,28.0,25.0,88,30.31,9.0,Calm,Calm,-,N/A,,Clear,0,2013-02-27 05:53:00
10:53 PM,24.1,21.9,91,30.30,10.0,Calm,Calm,-,N/A,,Clear,0,2013-02-27 06:53:00
11:53 PM,26.1,24.1,92,30.29,10.0,Calm,Calm,-,N/A,,Mostly Cloudy,0,2013-02-27 07:53:00